Location: ?????
(31.8092°N, 35.2590°E)
Time: 20:45:31
(UTC+00:00)

Cosmos 1455 Rocket - Pass Details

Date: 16 October 2021
Orbit: 604 x 630 km, 82.5° (Epoch: 04 December)

Event Time Altitude Azimuth Distance (km) Brightness Sun altitude
Rises 16:26:14 0° 192° (SSW) 2,864 6.6 -17.9°
Reaches altitude 10° 16:28:27 10° 195° (SSW) 1,968 5.8 -18.4°
Maximum altitude 16:32:47 64° 277° (W) 689 3.5 -19.3°
Drops below altitude 10° 16:37:10 10° 359° (N) 1,997 5.7 -20.2°
Sets 16:39:26 0° 3° (N) 2,911 6.5 -20.7°
